Location: *
(38.4303°S, 157.0822°W)
Time: 15:57:27
(UTC+00:00)

Meteor 2-1 Rocket - Pass Details

Date: 21 May 2024
Orbit: 828 x 907 km, 81.3° (Epoch: 22 June)

Event Time Altitude Azimuth Distance (km) Brightness Sun altitude
Rises 15:55:28 0° 356° (N) 3,510 7.5 -18.1°
Reaches altitude 10° 15:57:56 10° 357° (N) 2,570 6.8 -17.6°
Maximum altitude 16:03:48 81° 83° (E) 911 4.4 -16.5°
Drops below altitude 10° 16:09:38 10° 169° (S) 2,553 6.7 -15.4°
Sets 16:12:04 0° 169° (S) 3,486 7.4 -14.9°
